NOZ3TB ENZV-ESSA

Flight info

Callsign NOZ3TB
Flight time 1h 0m
Altitude 37000
Route UPLEV DCT ELTOK
Aircraft B738/M-SDE2E3FGHIRWXY/LB1

Departure

Time 2026-05-06 16:52
Airport Stavanger Airport, Sola (ENZV)

Arrival

Time 2026-05-06 17:53
Airport Stockholm-Arlanda Airport (ESSA)
Time Latitude Longitude Altitude Speed Heading
2026-05-06 16:28 58.88063 5.62747 24 ft 0 kts 16°
2026-05-06 16:43 58.88057 5.62744 29 ft 2 kts 17°
2026-05-06 16:44 58.88041 5.62735 25 ft 2 kts 17°
2026-05-06 16:44 58.88025 5.62726 27 ft 2 kts 17°
2026-05-06 16:44 58.88013 5.62719 29 ft 1 kts 17°
2026-05-06 16:44 58.88011 5.62718 30 ft 0 kts 17°
2026-05-06 16:47 58.88016 5.62723 28 ft 2 kts 34°
2026-05-06 16:48 58.88012 5.62761 27 ft 4 kts 126°
2026-05-06 16:48 58.87990 5.62828 25 ft 8 kts 110°
2026-05-06 16:48 58.87992 5.62959 26 ft 12 kts 82°
2026-05-06 16:48 58.87976 5.63130 27 ft 13 kts 107°
2026-05-06 16:49 58.87949 5.63297 29 ft 13 kts 112°
2026-05-06 16:49 58.87871 5.63310 30 ft 13 kts 200°
2026-05-06 16:49 58.87782 5.63290 30 ft 14 kts 178°
2026-05-06 16:49 58.87672 5.63295 30 ft 18 kts 178°
2026-05-06 16:50 58.87529 5.63298 30 ft 23 kts 179°
2026-05-06 16:50 58.87366 5.63303 31 ft 23 kts 179°
2026-05-06 16:50 58.87209 5.63307 31 ft 22 kts 179°
2026-05-06 16:50 58.87109 5.63309 31 ft 21 kts 180°
2026-05-06 16:51 58.86953 5.63488 31 ft 19 kts 108°
2026-05-06 16:51 58.86954 5.63699 36 ft 10 kts 88°
2026-05-06 16:51 58.86980 5.63797 35 ft 9 kts 19°
2026-05-06 16:51 58.87029 5.63802 35 ft 7 kts
2026-05-06 16:52 58.87132 5.63800 32 ft 39 kts 358°
2026-05-06 16:52 58.87664 5.63783 33 ft 111 kts 359°
2026-05-06 16:52 58.88624 5.63758 157 ft 155 kts 356°
2026-05-06 16:52 58.89718 5.63744 1017 ft 156 kts 356°
2026-05-06 16:53 58.90830 5.63716 1803 ft 170 kts 356°
2026-05-06 16:53 58.92131 5.63664 2132 ft 201 kts 357°
2026-05-06 16:53 58.93603 5.63615 2540 ft 218 kts 357°
2026-05-06 16:53 58.95146 5.63567 3178 ft 225 kts 358°
2026-05-06 16:54 58.96773 5.63517 3696 ft 242 kts 358°
2026-05-06 16:54 58.98488 5.63469 4500 ft 249 kts 358°
2026-05-06 16:54 59.00217 5.63422 5573 ft 250 kts 358°
2026-05-06 16:54 59.01983 5.63442 6467 ft 258 kts
2026-05-06 16:55 59.03623 5.64888 7344 ft 269 kts 39°
2026-05-06 16:55 59.04704 5.67913 8196 ft 280 kts 65°
2026-05-06 16:55 59.05168 5.71648 9012 ft 289 kts 80°
2026-05-06 16:55 59.05381 5.75581 9833 ft 296 kts 83°
2026-05-06 16:56 59.05549 5.79619 10469 ft 308 kts 83°
2026-05-06 16:56 59.05725 5.83937 10695 ft 334 kts 83°
2026-05-06 16:56 59.05918 5.88554 11133 ft 349 kts 83°
2026-05-06 16:56 59.06123 5.93304 11820 ft 356 kts 83°
2026-05-06 16:57 59.06336 5.98143 12594 ft 362 kts 83°
2026-05-06 16:57 59.06557 6.03046 13347 ft 367 kts 83°
2026-05-06 16:57 59.06783 6.08038 14069 ft 374 kts 83°
2026-05-06 16:57 59.07015 6.13125 14645 ft 382 kts 83°
2026-05-06 16:58 59.07251 6.18324 15197 ft 390 kts 83°
2026-05-06 16:58 59.07490 6.23641 15766 ft 399 kts 83°
2026-05-06 16:58 59.07733 6.29067 16332 ft 407 kts 83°
2026-05-06 16:58 59.07975 6.34590 16911 ft 414 kts 83°
2026-05-06 16:59 59.08218 6.40223 17466 ft 422 kts 84°
2026-05-06 16:59 59.08462 6.45887 18057 ft 429 kts 84°
2026-05-06 16:59 59.08712 6.51719 18594 ft 436 kts 84°
2026-05-06 16:59 59.08962 6.57605 19200 ft 439 kts 84°
2026-05-06 17:00 59.09213 6.63550 19799 ft 442 kts 84°
2026-05-06 17:00 59.09462 6.69522 20416 ft 445 kts 84°
2026-05-06 17:00 59.09713 6.75547 21008 ft 449 kts 84°
2026-05-06 17:00 59.09962 6.81638 21563 ft 453 kts 84°
2026-05-06 17:01 59.10252 6.87765 22091 ft 457 kts 80°
2026-05-06 17:01 59.10819 6.93855 22662 ft 459 kts 76°
2026-05-06 17:01 59.11495 6.99953 23190 ft 463 kts 75°
2026-05-06 17:01 59.12213 7.06085 23693 ft 467 kts 75°
2026-05-06 17:02 59.12941 7.12265 24110 ft 471 kts 75°
2026-05-06 17:02 59.13664 7.18513 24544 ft 474 kts 75°
2026-05-06 17:02 59.14136 7.22658 24831 ft 476 kts 75°
2026-05-06 17:02 59.15081 7.31143 25364 ft 481 kts 76°
2026-05-06 17:03 59.15779 7.37538 25764 ft 485 kts 76°
2026-05-06 17:03 59.16238 7.41775 26033 ft 487 kts 76°
2026-05-06 17:03 59.16937 7.48287 26428 ft 490 kts 76°
2026-05-06 17:03 59.17633 7.54816 26792 ft 494 kts 76°
2026-05-06 17:04 59.18332 7.61403 27134 ft 498 kts 76°
2026-05-06 17:04 59.19032 7.68035 27512 ft 501 kts 76°
2026-05-06 17:04 59.19733 7.74708 27906 ft 503 kts 76°
2026-05-06 17:04 59.20434 7.81408 28282 ft 506 kts 76°
2026-05-06 17:05 59.21138 7.88176 28629 ft 509 kts 76°
2026-05-06 17:05 59.21842 7.94970 28981 ft 512 kts 76°
2026-05-06 17:05 59.22546 8.01800 29287 ft 516 kts 77°
2026-05-06 17:05 59.23251 8.08681 29665 ft 518 kts 77°
2026-05-06 17:06 59.23956 8.15598 30012 ft 520 kts 77°
2026-05-06 17:06 59.24660 8.22543 30294 ft 523 kts 77°
2026-05-06 17:06 59.25363 8.29523 30591 ft 524 kts 77°
2026-05-06 17:06 59.26062 8.36507 30884 ft 525 kts 77°
2026-05-06 17:07 59.26761 8.43538 31165 ft 527 kts 77°
2026-05-06 17:07 59.27458 8.50580 31426 ft 528 kts 78°
2026-05-06 17:07 59.28151 8.57625 31814 ft 527 kts 78°
2026-05-06 17:07 59.28838 8.64645 32190 ft 526 kts 78°
2026-05-06 17:08 59.29520 8.71668 32585 ft 524 kts 78°
2026-05-06 17:08 59.30196 8.78659 32989 ft 522 kts 78°
2026-05-06 17:08 59.30865 8.85626 33340 ft 521 kts 78°
2026-05-06 17:08 59.31532 8.92607 33690 ft 521 kts 78°
2026-05-06 17:09 59.32183 8.99463 34028 ft 519 kts 78°
2026-05-06 17:09 59.32850 9.06522 34310 ft 519 kts 79°
2026-05-06 17:09 59.33501 9.13462 34551 ft 519 kts 79°
2026-05-06 17:09 59.34150 9.20417 34825 ft 518 kts 79°
2026-05-06 17:10 59.34784 9.27264 35087 ft 517 kts 79°
2026-05-06 17:10 59.35422 9.34192 35353 ft 516 kts 79°
2026-05-06 17:10 59.36064 9.41203 35628 ft 515 kts 79°
2026-05-06 17:10 59.36692 9.48105 35898 ft 514 kts 79°
2026-05-06 17:11 59.37296 9.54787 36159 ft 512 kts 79°
2026-05-06 17:11 59.37924 9.61772 36459 ft 511 kts 80°
2026-05-06 17:11 59.38537 9.68627 36713 ft 510 kts 80°
2026-05-06 17:11 59.39144 9.75473 36918 ft 510 kts 80°
2026-05-06 17:12 59.39751 9.82350 36915 ft 513 kts 80°
2026-05-06 17:12 59.40955 9.96130 36918 ft 511 kts 80°
2026-05-06 17:13 59.42137 10.09834 36926 ft 508 kts 81°
2026-05-06 17:13 59.43299 10.23480 36932 ft 505 kts 81°
2026-05-06 17:14 59.44442 10.37074 36930 ft 504 kts 81°
2026-05-06 17:14 59.45567 10.50640 36937 ft 503 kts 81°
2026-05-06 17:15 59.46680 10.64232 36942 ft 504 kts 81°
2026-05-06 17:15 59.47781 10.77866 36945 ft 506 kts 81°
2026-05-06 17:16 59.48873 10.91568 36944 ft 508 kts 82°
2026-05-06 17:16 59.49953 11.05312 36942 ft 510 kts 82°
2026-05-06 17:17 59.51026 11.19161 36934 ft 512 kts 82°
2026-05-06 17:17 59.52085 11.33030 36938 ft 513 kts 82°
2026-05-06 17:18 59.53132 11.46938 36928 ft 513 kts 82°
2026-05-06 17:18 59.54163 11.60841 36922 ft 513 kts 82°
2026-05-06 17:19 59.55173 11.74658 36925 ft 512 kts 82°
2026-05-06 17:19 59.56172 11.88541 36924 ft 511 kts 82°
2026-05-06 17:20 59.57154 12.02393 36921 ft 509 kts 83°
2026-05-06 17:20 59.58118 12.16219 36925 ft 508 kts 83°
2026-05-06 17:21 59.59066 12.30019 36916 ft 507 kts 83°
2026-05-06 17:21 59.59997 12.43793 36917 ft 506 kts 83°
2026-05-06 17:22 59.60912 12.57562 36921 ft 505 kts 83°
2026-05-06 17:22 59.61812 12.71311 36924 ft 505 kts 83°
2026-05-06 17:23 59.62697 12.85070 36928 ft 505 kts 84°
2026-05-06 17:23 59.63568 12.98852 36930 ft 506 kts 84°
2026-05-06 17:24 59.64427 13.12667 36933 ft 506 kts 84°
2026-05-06 17:24 59.64838 13.26473 36911 ft 499 kts 94°
2026-05-06 17:24 59.64762 13.33331 36399 ft 501 kts 95°
2026-05-06 17:25 59.64656 13.40209 35807 ft 500 kts 96°
2026-05-06 17:25 59.64549 13.47080 35206 ft 500 kts 96°
2026-05-06 17:25 59.64415 13.53946 34589 ft 499 kts 100°
2026-05-06 17:25 59.63990 13.60741 33968 ft 498 kts 104°
2026-05-06 17:26 59.63452 13.67508 33231 ft 498 kts 105°
2026-05-06 17:26 59.62888 13.74249 32606 ft 497 kts 105°
2026-05-06 17:26 59.62321 13.80983 31972 ft 496 kts 106°
2026-05-06 17:26 59.61757 13.87672 31544 ft 491 kts 106°
2026-05-06 17:27 59.61204 13.94296 31079 ft 487 kts 106°
2026-05-06 17:27 59.60661 14.00868 30666 ft 482 kts 106°
2026-05-06 17:27 59.60319 14.07473 30191 ft 488 kts 93°
2026-05-06 17:27 59.60797 14.14127 29760 ft 491 kts 79°
2026-05-06 17:28 59.61614 14.20650 29250 ft 488 kts 79°
2026-05-06 17:28 59.62427 14.27140 28758 ft 484 kts 79°
2026-05-06 17:28 59.63231 14.33558 28296 ft 479 kts 79°
2026-05-06 17:28 59.64030 14.39934 27819 ft 476 kts 79°
2026-05-06 17:29 59.64824 14.46257 27362 ft 472 kts 79°
2026-05-06 17:29 59.65553 14.52544 26883 ft 467 kts 82°
2026-05-06 17:29 59.66109 14.58847 26430 ft 463 kts 84°
2026-05-06 17:29 59.66576 14.65122 25967 ft 459 kts 85°
2026-05-06 17:30 59.67010 14.71363 25521 ft 456 kts 85°
2026-05-06 17:30 59.67441 14.77559 25075 ft 454 kts 85°
2026-05-06 17:30 59.67880 14.83720 24628 ft 451 kts 84°
2026-05-06 17:30 59.68327 14.89848 24193 ft 449 kts 84°
2026-05-06 17:31 59.68779 14.95942 23749 ft 446 kts 84°
2026-05-06 17:31 59.69231 15.02011 23261 ft 444 kts 84°
2026-05-06 17:31 59.69681 15.08042 22755 ft 441 kts 83°
2026-05-06 17:31 59.70126 15.14024 22322 ft 437 kts 83°
2026-05-06 17:32 59.70563 15.19945 21873 ft 433 kts 83°
2026-05-06 17:32 59.70994 15.25820 21440 ft 429 kts 83°
2026-05-06 17:32 59.71418 15.31650 20997 ft 425 kts 83°
2026-05-06 17:32 59.71835 15.37417 20576 ft 422 kts 83°
2026-05-06 17:33 59.72247 15.43159 20142 ft 419 kts 83°
2026-05-06 17:33 59.72648 15.48779 19718 ft 416 kts 83°
2026-05-06 17:33 59.73049 15.54437 19297 ft 413 kts 83°
2026-05-06 17:33 59.73449 15.60119 18870 ft 410 kts 82°
2026-05-06 17:34 59.73834 15.65624 18460 ft 407 kts 82°
2026-05-06 17:34 59.74225 15.71244 18004 ft 404 kts 82°
2026-05-06 17:34 59.74600 15.76674 17553 ft 401 kts 82°
2026-05-06 17:34 59.74975 15.82123 17144 ft 397 kts 82°
2026-05-06 17:35 59.75343 15.87517 16719 ft 393 kts 82°
2026-05-06 17:35 59.75706 15.92861 16310 ft 389 kts 82°
2026-05-06 17:35 59.76063 15.98161 15893 ft 386 kts 83°
2026-05-06 17:36 59.76762 16.08615 15085 ft 379 kts 83°
2026-05-06 17:36 59.77103 16.13779 14683 ft 376 kts 83°
2026-05-06 17:36 59.77440 16.18893 14286 ft 373 kts 83°
2026-05-06 17:36 59.77772 16.23979 13889 ft 370 kts 83°
2026-05-06 17:37 59.78100 16.29022 13459 ft 367 kts 83°
2026-05-06 17:37 59.78423 16.34020 13051 ft 363 kts 83°
2026-05-06 17:37 59.78741 16.38973 12646 ft 360 kts 83°
2026-05-06 17:37 59.79054 16.43872 12253 ft 356 kts 83°
2026-05-06 17:38 59.79362 16.48721 11858 ft 352 kts 83°
2026-05-06 17:38 59.79665 16.53526 11460 ft 349 kts 83°
2026-05-06 17:38 59.79964 16.58300 11076 ft 347 kts 83°
2026-05-06 17:38 59.80258 16.63025 10691 ft 344 kts 83°
2026-05-06 17:39 59.80548 16.67697 10468 ft 336 kts 83°
2026-05-06 17:39 59.80827 16.72227 10319 ft 326 kts 83°
2026-05-06 17:39 59.81097 16.76628 10185 ft 316 kts 83°
2026-05-06 17:39 59.81357 16.80905 10053 ft 307 kts 83°
2026-05-06 17:40 59.81610 16.85059 9947 ft 298 kts 83°
2026-05-06 17:40 59.81854 16.89099 9665 ft 295 kts 83°
2026-05-06 17:40 59.82097 16.93144 9355 ft 294 kts 83°
2026-05-06 17:40 59.82336 16.97154 9083 ft 291 kts 83°
2026-05-06 17:41 59.82570 17.01118 8811 ft 288 kts 83°
2026-05-06 17:41 59.82778 17.05061 8536 ft 285 kts 85°
2026-05-06 17:41 59.82902 17.08963 8280 ft 282 kts 87°
2026-05-06 17:41 59.83011 17.12842 8019 ft 280 kts 87°
2026-05-06 17:42 59.83116 17.16687 7754 ft 277 kts 87°
2026-05-06 17:42 59.83219 17.20493 7493 ft 275 kts 87°
2026-05-06 17:42 59.83321 17.24274 7229 ft 273 kts 87°
2026-05-06 17:42 59.83422 17.28023 6974 ft 270 kts 87°
2026-05-06 17:43 59.83519 17.31561 6736 ft 269 kts 87°
2026-05-06 17:43 59.83620 17.35214 6484 ft 267 kts 87°
2026-05-06 17:43 59.83724 17.38885 6236 ft 265 kts 87°
2026-05-06 17:43 59.83828 17.42540 5967 ft 264 kts 87°
2026-05-06 17:44 59.83932 17.46175 5695 ft 263 kts 87°
2026-05-06 17:44 59.84038 17.49789 5441 ft 260 kts 87°
2026-05-06 17:44 59.84147 17.53358 5231 ft 257 kts 87°
2026-05-06 17:44 59.84255 17.56883 5009 ft 254 kts 87°
2026-05-06 17:45 59.84364 17.60385 4770 ft 252 kts 87°
2026-05-06 17:45 59.84476 17.63843 4549 ft 249 kts 87°
2026-05-06 17:45 59.84594 17.67261 4336 ft 246 kts 88°
2026-05-06 17:45 59.84720 17.70638 4112 ft 244 kts 88°
2026-05-06 17:46 59.84851 17.73978 3878 ft 242 kts 88°
2026-05-06 17:46 59.84984 17.77304 3649 ft 240 kts 87°
2026-05-06 17:46 59.85119 17.80599 3417 ft 239 kts 88°
2026-05-06 17:46 59.85259 17.83896 3132 ft 239 kts 88°
2026-05-06 17:47 59.85407 17.87146 2905 ft 233 kts 87°
2026-05-06 17:47 59.85557 17.90317 2647 ft 228 kts 87°
2026-05-06 17:47 59.85705 17.93403 2499 ft 217 kts 90°
2026-05-06 17:47 59.85427 17.96164 2492 ft 200 kts 124°
2026-05-06 17:48 59.84414 17.97941 2494 ft 195 kts 160°
2026-05-06 17:48 59.83564 17.98485 2512 ft 193 kts 166°
2026-05-06 17:48 59.82259 17.99146 2500 ft 193 kts 168°
2026-05-06 17:48 59.80955 17.99765 2492 ft 192 kts 167°
2026-05-06 17:49 59.79654 18.00389 2506 ft 192 kts 167°
2026-05-06 17:49 59.77950 18.00442 2507 ft 179 kts 186°
2026-05-06 17:49 59.76735 18.00150 2486 ft 175 kts 188°
2026-05-06 17:49 59.75919 17.99884 2370 ft 176 kts 189°
2026-05-06 17:50 59.74728 17.99462 2128 ft 171 kts 190°
2026-05-06 17:50 59.73577 17.99045 1900 ft 167 kts 189°
2026-05-06 17:50 59.72460 17.98638 1683 ft 158 kts 189°
2026-05-06 17:50 59.71409 17.98256 1462 ft 150 kts 189°
2026-05-06 17:51 59.70414 17.97896 1288 ft 141 kts 189°
2026-05-06 17:51 59.69467 17.97543 1054 ft 138 kts 190°
2026-05-06 17:51 59.68512 17.97200 860 ft 141 kts 186°
2026-05-06 17:51 59.67545 17.96850 683 ft 142 kts 186°
2026-05-06 17:52 59.66574 17.96501 487 ft 143 kts 186°
2026-05-06 17:52 59.65591 17.96145 299 ft 142 kts 186°
2026-05-06 17:52 59.64628 17.95799 111 ft 137 kts 187°
2026-05-06 17:52 59.63843 17.95514 112 ft 85 kts 190°
2026-05-06 17:53 59.63433 17.95326 120 ft 44 kts 206°
2026-05-06 17:53 59.63285 17.95110 118 ft 16 kts 220°
2026-05-06 17:53 59.63243 17.94953 122 ft 12 kts 288°
2026-05-06 17:53 59.63317 17.94912 118 ft 12 kts
2026-05-06 17:54 59.63406 17.94946 120 ft 14 kts 11°
2026-05-06 17:54 59.63504 17.94980 117 ft 15 kts 10°
2026-05-06 17:54 59.63609 17.95020 113 ft 17 kts 11°
2026-05-06 17:54 59.63739 17.95067 110 ft 21 kts 10°
2026-05-06 17:55 59.63890 17.95122 109 ft 22 kts 10°
2026-05-06 17:55 59.64039 17.95176 107 ft 21 kts 11°
2026-05-06 17:55 59.64184 17.95230 106 ft 21 kts 10°
2026-05-06 17:55 59.64324 17.95279 105 ft 20 kts 10°
2026-05-06 17:56 59.64460 17.95329 104 ft 20 kts 10°
2026-05-06 17:56 59.64601 17.95381 104 ft 21 kts 11°
2026-05-06 17:56 59.64742 17.95433 105 ft 20 kts 10°
2026-05-06 17:56 59.64879 17.95482 107 ft 20 kts 11°
2026-05-06 17:57 59.65012 17.95517 112 ft 19 kts 359°
2026-05-06 17:57 59.65140 17.95466 116 ft 19 kts 345°
2026-05-06 17:57 59.65263 17.95400 121 ft 18 kts 345°
2026-05-06 17:57 59.65383 17.95337 125 ft 19 kts 345°
2026-05-06 17:58 59.65526 17.95260 126 ft 22 kts 345°
2026-05-06 17:58 59.65669 17.95183 126 ft 16 kts 343°
2026-05-06 17:58 59.65748 17.95067 125 ft 15 kts 285°
2026-05-06 17:58 59.65730 17.94866 119 ft 15 kts 255°
2026-05-06 17:59 59.65704 17.94659 124 ft 17 kts 256°
2026-05-06 17:59 59.65673 17.94412 122 ft 20 kts 256°
2026-05-06 17:59 59.65641 17.94154 118 ft 19 kts 256°
2026-05-06 17:59 59.65606 17.93885 112 ft 22 kts 256°
2026-05-06 18:00 59.65571 17.93603 111 ft 21 kts 256°
2026-05-06 18:00 59.65537 17.93340 111 ft 19 kts 255°
2026-05-06 18:00 59.65506 17.93099 111 ft 17 kts 256°
2026-05-06 18:00 59.65472 17.92882 109 ft 16 kts 250°
2026-05-06 18:01 59.65425 17.92695 110 ft 15 kts 221°
2026-05-06 18:01 59.65332 17.92734 111 ft 14 kts 151°
2026-05-06 18:01 59.65248 17.92825 111 ft 13 kts 151°
2026-05-06 18:01 59.65192 17.92909 111 ft 5 kts 141°
2026-05-06 18:02 59.65162 17.92918 111 ft 3 kts 195°
2026-05-06 18:02 59.65147 17.92905 111 ft 2 kts 205°
2026-05-06 18:02 59.65137 17.92895 111 ft 1 kts 206°
2026-05-06 18:02 59.65135 17.92893 111 ft 0 kts 207°